MZT8083 ZBAA-ZJHK

Flight info

Callsign MZT8083
Flight time 3h 14m
Altitude 34100
Route RUSDO9Z RUSDO W45 NUPTI R343 LBN W159 BHY W70 NYB
Aircraft B737/M-SDFGHIM1RWXYZ/LB1

Departure

Time 2026-04-26 03:47
Airport Beijing Capital International Airport (ZBAA)

Arrival

Time 2026-04-26 07:02
Airport Haikou Meilan International Airport (ZJHK)
Time Latitude Longitude Altitude Speed Heading
2026-04-26 03:24 40.07188 116.59099 123 ft 0 kts 263°
2026-04-26 03:31 40.07188 116.59108 123 ft 3 kts 264°
2026-04-26 03:31 40.07190 116.59133 121 ft 3 kts 269°
2026-04-26 03:31 40.07189 116.59159 122 ft 3 kts 282°
2026-04-26 03:32 40.07182 116.59182 118 ft 3 kts 314°
2026-04-26 03:32 40.07172 116.59191 122 ft 1 kts 353°
2026-04-26 03:36 40.07175 116.59191 121 ft 2 kts 353°
2026-04-26 03:37 40.07196 116.59188 119 ft 4 kts 353°
2026-04-26 03:37 40.07236 116.59182 120 ft 7 kts 353°
2026-04-26 03:37 40.07293 116.59173 122 ft 9 kts 353°
2026-04-26 03:37 40.07363 116.59162 120 ft 10 kts 353°
2026-04-26 03:38 40.07423 116.59156 123 ft 8 kts
2026-04-26 03:38 40.07456 116.59204 121 ft 8 kts 82°
2026-04-26 03:38 40.07460 116.59270 121 ft 7 kts 96°
2026-04-26 03:38 40.07426 116.59312 121 ft 7 kts 159°
2026-04-26 03:39 40.07382 116.59341 120 ft 7 kts 150°
2026-04-26 03:39 40.07337 116.59377 121 ft 8 kts 148°
2026-04-26 03:39 40.07283 116.59402 120 ft 8 kts 172°
2026-04-26 03:39 40.07220 116.59412 121 ft 10 kts 173°
2026-04-26 03:40 40.07137 116.59425 120 ft 14 kts 173°
2026-04-26 03:40 40.07029 116.59442 123 ft 17 kts 173°
2026-04-26 03:40 40.06909 116.59461 121 ft 17 kts 173°
2026-04-26 03:40 40.06792 116.59479 123 ft 17 kts 173°
2026-04-26 03:41 40.06681 116.59496 121 ft 16 kts 173°
2026-04-26 03:41 40.06573 116.59513 121 ft 15 kts 173°
2026-04-26 03:41 40.06469 116.59530 120 ft 15 kts 173°
2026-04-26 03:41 40.06370 116.59546 121 ft 14 kts 173°
2026-04-26 03:42 40.06274 116.59560 121 ft 13 kts 172°
2026-04-26 03:42 40.06183 116.59574 121 ft 13 kts 173°
2026-04-26 03:42 40.06095 116.59588 122 ft 13 kts 173°
2026-04-26 03:42 40.06005 116.59602 121 ft 14 kts 173°
2026-04-26 03:43 40.05903 116.59618 120 ft 16 kts 173°
2026-04-26 03:43 40.05785 116.59637 123 ft 17 kts 173°
2026-04-26 03:43 40.05668 116.59655 122 ft 17 kts 173°
2026-04-26 03:43 40.05559 116.59672 121 ft 14 kts 173°
2026-04-26 03:44 40.05486 116.59689 123 ft 9 kts 153°
2026-04-26 03:44 40.05469 116.59763 122 ft 9 kts 83°
2026-04-26 03:44 40.05475 116.59828 120 ft 5 kts 83°
2026-04-26 03:44 40.05477 116.59850 122 ft 1 kts 82°
2026-04-26 03:45 40.05478 116.59854 121 ft 0 kts 81°
2026-04-26 03:45 40.05479 116.59863 121 ft 2 kts 79°
2026-04-26 03:45 40.05488 116.59893 118 ft 5 kts 62°
2026-04-26 03:45 40.05517 116.59933 119 ft 7 kts 38°
2026-04-26 03:46 40.05558 116.59974 122 ft 7 kts 37°
2026-04-26 03:46 40.05596 116.60005 122 ft 5 kts 13°
2026-04-26 03:46 40.05621 116.60004 121 ft 2 kts 354°
2026-04-26 03:47 40.05721 116.59988 123 ft 47 kts 353°
2026-04-26 03:47 40.06355 116.59889 120 ft 133 kts 353°
2026-04-26 03:47 40.07399 116.59718 715 ft 152 kts 354°
2026-04-26 03:47 40.08423 116.59501 1793 ft 146 kts 354°
2026-04-26 03:48 40.09471 116.59338 2630 ft 152 kts 357°
2026-04-26 03:48 40.10525 116.59198 3397 ft 159 kts 357°
2026-04-26 03:48 40.11697 116.59030 3869 ft 183 kts 356°
2026-04-26 03:48 40.13073 116.58837 4149 ft 213 kts 356°
2026-04-26 03:49 40.14638 116.58600 4512 ft 234 kts 355°
2026-04-26 03:49 40.16297 116.58353 5199 ft 244 kts 356°
2026-04-26 03:49 40.18012 116.58084 6101 ft 250 kts 354°
2026-04-26 03:49 40.19710 116.57801 7141 ft 249 kts 354°
2026-04-26 03:50 40.21450 116.57515 8118 ft 254 kts 353°
2026-04-26 03:50 40.23224 116.57227 9056 ft 260 kts 351°
2026-04-26 03:50 40.24988 116.56676 9981 ft 263 kts 334°
2026-04-26 03:50 40.26499 116.55334 10897 ft 263 kts 317°
2026-04-26 03:51 40.27869 116.53726 11810 ft 268 kts 316°
2026-04-26 03:51 40.29319 116.52014 12145 ft 295 kts 316°
2026-04-26 03:51 40.30793 116.50007 12559 ft 315 kts 301°
2026-04-26 03:51 40.31604 116.47342 13502 ft 317 kts 281°
2026-04-26 03:52 40.31742 116.44438 14424 ft 322 kts 272°
2026-04-26 03:52 40.31731 116.41500 15408 ft 324 kts 271°
2026-04-26 03:52 40.31701 116.38537 16390 ft 326 kts 271°
2026-04-26 03:52 40.31676 116.35555 17324 ft 329 kts 271°
2026-04-26 03:53 40.31661 116.32536 18234 ft 334 kts 271°
2026-04-26 03:53 40.31656 116.29559 18958 ft 338 kts 271°
2026-04-26 03:53 40.31653 116.26462 19787 ft 341 kts 271°
2026-04-26 03:53 40.31651 116.23380 20568 ft 345 kts 271°
2026-04-26 03:54 40.31647 116.20190 21345 ft 350 kts 271°
2026-04-26 03:54 40.31642 116.16976 22126 ft 354 kts 271°
2026-04-26 03:54 40.31636 116.13726 22836 ft 360 kts 271°
2026-04-26 03:54 40.31630 116.10417 23542 ft 365 kts 271°
2026-04-26 03:55 40.31622 116.07086 24264 ft 365 kts 271°
2026-04-26 03:55 40.31613 116.03763 25013 ft 365 kts 271°
2026-04-26 03:55 40.31367 116.00445 25638 ft 371 kts 258°
2026-04-26 03:55 40.30333 115.97316 26244 ft 380 kts 242°
2026-04-26 03:56 40.28688 115.94626 26876 ft 389 kts 228°
2026-04-26 03:56 40.26427 115.92572 27449 ft 402 kts 215°
2026-04-26 03:56 40.23944 115.90847 28044 ft 406 kts 213°
2026-04-26 03:56 40.21406 115.89176 28525 ft 411 kts 213°
2026-04-26 03:57 40.18836 115.87496 29019 ft 414 kts 213°
2026-04-26 03:57 40.16257 115.85797 29539 ft 416 kts 213°
2026-04-26 03:57 40.13671 115.84072 29989 ft 419 kts 214°
2026-04-26 03:57 40.11070 115.82321 30338 ft 422 kts 214°
2026-04-26 03:58 40.08449 115.80550 30710 ft 424 kts 214°
2026-04-26 03:58 40.05841 115.78788 31305 ft 421 kts 214°
2026-04-26 03:58 40.03250 115.77040 31913 ft 417 kts 214°
2026-04-26 03:58 40.00671 115.75298 32410 ft 416 kts 214°
2026-04-26 03:59 39.98100 115.73563 32850 ft 416 kts 215°
2026-04-26 03:59 39.95531 115.71832 33327 ft 415 kts 215°
2026-04-26 03:59 39.92977 115.70115 33860 ft 412 kts 215°
2026-04-26 03:59 39.90451 115.68415 34045 ft 418 kts 215°
2026-04-26 04:00 39.87843 115.66658 34056 ft 425 kts 215°
2026-04-26 04:00 39.83240 115.62089 34054 ft 409 kts 240°
2026-04-26 04:01 39.80502 115.55716 34064 ft 403 kts 248°
2026-04-26 04:01 39.77916 115.49212 34049 ft 406 kts 247°
2026-04-26 04:02 39.75274 115.42758 34049 ft 406 kts 248°
2026-04-26 04:02 39.72695 115.36268 34090 ft 401 kts 248°
2026-04-26 04:03 39.70156 115.29810 34071 ft 400 kts 248°
2026-04-26 04:03 39.67614 115.23369 34068 ft 399 kts 248°
2026-04-26 04:04 39.65071 115.16957 34067 ft 399 kts 248°
2026-04-26 04:04 39.62534 115.10582 34066 ft 399 kts 248°
2026-04-26 04:05 39.59982 115.04179 34058 ft 399 kts 248°
2026-04-26 04:05 39.57429 114.97798 34067 ft 398 kts 248°
2026-04-26 04:06 39.54872 114.91420 34088 ft 400 kts 248°
2026-04-26 04:06 39.52316 114.85048 34081 ft 401 kts 248°
2026-04-26 04:07 39.49727 114.78612 34076 ft 403 kts 248°
2026-04-26 04:07 39.47129 114.72167 34072 ft 404 kts 248°
2026-04-26 04:08 39.44512 114.65690 34068 ft 406 kts 248°
2026-04-26 04:08 39.41896 114.59226 34059 ft 406 kts 249°
2026-04-26 04:09 39.39285 114.52788 34059 ft 406 kts 249°
2026-04-26 04:09 39.36644 114.46331 34065 ft 405 kts 248°
2026-04-26 04:10 39.33993 114.39894 34054 ft 405 kts 249°
2026-04-26 04:10 39.31352 114.33488 34053 ft 403 kts 250°
2026-04-26 04:11 39.28731 114.27110 34076 ft 402 kts 249°
2026-04-26 04:11 39.26107 114.20715 34071 ft 403 kts 249°
2026-04-26 04:12 39.22610 114.14936 34082 ft 426 kts 227°
2026-04-26 04:12 39.20095 114.12817 34068 ft 441 kts 214°
2026-04-26 04:12 39.17191 114.11472 34085 ft 453 kts 205°
2026-04-26 04:13 39.11075 114.09371 34070 ft 455 kts 203°
2026-04-26 04:13 39.04943 114.07314 34058 ft 455 kts 204°
2026-04-26 04:14 38.98827 114.05177 34060 ft 456 kts 204°
2026-04-26 04:14 38.92693 114.02994 34061 ft 457 kts 204°
2026-04-26 04:15 38.87588 114.01176 34070 ft 461 kts 204°
2026-04-26 04:15 38.80314 113.98595 34067 ft 465 kts 204°
2026-04-26 04:16 38.75120 113.96760 34067 ft 467 kts 204°
2026-04-26 04:16 38.68845 113.94545 34069 ft 468 kts 204°
2026-04-26 04:17 38.62589 113.92343 34055 ft 469 kts 204°
2026-04-26 04:17 38.56298 113.90143 34052 ft 467 kts 204°
2026-04-26 04:18 38.50026 113.87952 34072 ft 468 kts 204°
2026-04-26 04:18 38.43738 113.85757 34054 ft 468 kts 204°
2026-04-26 04:19 38.37431 113.83559 34062 ft 470 kts 204°
2026-04-26 04:19 38.31149 113.81376 34057 ft 471 kts 204°
2026-04-26 04:20 38.24815 113.79187 34064 ft 473 kts 204°
2026-04-26 04:20 38.18463 113.76997 34089 ft 471 kts 204°
2026-04-26 04:21 38.12111 113.74809 34072 ft 473 kts 204°
2026-04-26 04:21 38.05746 113.72620 34069 ft 475 kts 204°
2026-04-26 04:22 37.99365 113.70427 34070 ft 477 kts 204°
2026-04-26 04:22 37.92947 113.68227 34077 ft 478 kts 204°
2026-04-26 04:23 37.86541 113.66035 34073 ft 480 kts 204°
2026-04-26 04:23 37.80082 113.63830 34081 ft 482 kts 203°
2026-04-26 04:24 37.73591 113.61617 34073 ft 483 kts 203°
2026-04-26 04:24 37.67091 113.59406 34070 ft 483 kts 203°
2026-04-26 04:25 37.60603 113.57203 34071 ft 484 kts 203°
2026-04-26 04:25 37.54142 113.55013 34069 ft 484 kts 203°
2026-04-26 04:26 37.47627 113.52808 34068 ft 483 kts 203°
2026-04-26 04:26 37.41120 113.50610 34063 ft 484 kts 203°
2026-04-26 04:27 37.34614 113.48417 34069 ft 484 kts 202°
2026-04-26 04:27 37.28146 113.46238 34071 ft 484 kts 202°
2026-04-26 04:28 37.21581 113.44032 34068 ft 485 kts 202°
2026-04-26 04:28 37.15094 113.41856 34058 ft 486 kts 202°
2026-04-26 04:29 37.08552 113.39666 34067 ft 486 kts 202°
2026-04-26 04:29 37.02014 113.37481 34062 ft 487 kts 202°
2026-04-26 04:30 36.95473 113.35300 34053 ft 485 kts 202°
2026-04-26 04:30 36.89015 113.33151 34040 ft 482 kts 202°
2026-04-26 04:31 36.82523 113.30991 34035 ft 483 kts 202°
2026-04-26 04:31 36.76016 113.28831 34040 ft 483 kts 201°
2026-04-26 04:32 36.69504 113.26673 34041 ft 484 kts 201°
2026-04-26 04:32 36.63023 113.24530 34042 ft 484 kts 201°
2026-04-26 04:33 36.56508 113.22379 34044 ft 485 kts 201°
2026-04-26 04:33 36.49986 113.20229 34045 ft 484 kts 201°
2026-04-26 04:34 36.43449 113.18079 34055 ft 485 kts 201°
2026-04-26 04:34 36.36919 113.15933 34051 ft 486 kts 201°
2026-04-26 04:35 36.30414 113.13800 34053 ft 486 kts 201°
2026-04-26 04:35 36.23886 113.11625 34050 ft 484 kts 204°
2026-04-26 04:36 36.17702 113.08552 34049 ft 478 kts 210°
2026-04-26 04:36 36.11597 113.05263 34041 ft 478 kts 210°
2026-04-26 04:37 36.05515 113.02037 34050 ft 478 kts 209°
2026-04-26 04:37 35.99368 112.98829 34055 ft 479 kts 209°
2026-04-26 04:38 35.93219 112.95634 34048 ft 480 kts 209°
2026-04-26 04:38 35.87063 112.92437 34040 ft 480 kts 208°
2026-04-26 04:39 35.80895 112.89238 34034 ft 481 kts 208°
2026-04-26 04:39 35.74729 112.86039 34033 ft 481 kts 208°
2026-04-26 04:40 35.68603 112.82847 34030 ft 481 kts 208°
2026-04-26 04:40 35.62436 112.79640 34027 ft 481 kts 208°
2026-04-26 04:41 35.56272 112.76439 34020 ft 480 kts 208°
2026-04-26 04:41 35.50122 112.73234 34026 ft 480 kts 208°
2026-04-26 04:42 35.43961 112.70023 34017 ft 480 kts 208°
2026-04-26 04:42 35.37851 112.66845 34013 ft 480 kts 208°
2026-04-26 04:43 35.31696 112.63651 34012 ft 480 kts 208°
2026-04-26 04:43 35.25541 112.60462 33970 ft 479 kts 208°
2026-04-26 04:44 35.19403 112.57288 33986 ft 479 kts 208°
2026-04-26 04:44 35.13240 112.54141 33996 ft 480 kts 207°
2026-04-26 04:45 35.06965 112.51376 34004 ft 484 kts 201°
2026-04-26 04:45 35.00483 112.49063 33996 ft 486 kts 200°
2026-04-26 04:46 34.93977 112.46740 33993 ft 487 kts 200°
2026-04-26 04:46 34.87477 112.44363 33988 ft 487 kts 201°
2026-04-26 04:47 34.81016 112.41992 33987 ft 487 kts 200°
2026-04-26 04:47 34.74425 112.39925 33978 ft 492 kts 191°
2026-04-26 04:47 34.71004 112.39629 33978 ft 495 kts 180°
2026-04-26 04:48 34.64131 112.40208 33989 ft 495 kts 176°
2026-04-26 04:48 34.57265 112.40912 33984 ft 495 kts 176°
2026-04-26 04:49 34.50439 112.41550 33993 ft 494 kts 177°
2026-04-26 04:49 34.43592 112.42142 33984 ft 492 kts 177°
2026-04-26 04:50 34.36760 112.42722 33990 ft 491 kts 177°
2026-04-26 04:50 34.29943 112.43301 33985 ft 490 kts 177°
2026-04-26 04:51 34.23142 112.43881 33992 ft 490 kts 177°
2026-04-26 04:51 34.16335 112.44462 33998 ft 489 kts 177°
2026-04-26 04:52 34.09539 112.45040 34000 ft 489 kts 177°
2026-04-26 04:52 34.02788 112.45614 33996 ft 490 kts 177°
2026-04-26 04:53 33.95980 112.46191 34000 ft 490 kts 177°
2026-04-26 04:53 33.89168 112.46768 33991 ft 490 kts 177°
2026-04-26 04:54 33.82361 112.47344 33998 ft 490 kts 177°
2026-04-26 04:54 33.75600 112.47915 34000 ft 489 kts 176°
2026-04-26 04:55 33.68793 112.48489 33996 ft 490 kts 176°
2026-04-26 04:55 33.61982 112.49063 33979 ft 490 kts 176°
2026-04-26 04:56 33.55187 112.49641 33999 ft 489 kts 176°
2026-04-26 04:56 33.48391 112.50219 33998 ft 489 kts 176°
2026-04-26 04:57 33.41636 112.50792 33993 ft 490 kts 176°
2026-04-26 04:57 33.34825 112.51369 33990 ft 490 kts 176°
2026-04-26 04:58 33.28010 112.51944 33988 ft 491 kts 176°
2026-04-26 04:58 33.21197 112.52520 33988 ft 491 kts 176°
2026-04-26 04:59 33.14370 112.53095 33989 ft 491 kts 176°
2026-04-26 04:59 33.07589 112.53666 33983 ft 491 kts 176°
2026-04-26 05:00 33.00772 112.54239 33989 ft 491 kts 176°
2026-04-26 05:00 32.93923 112.54744 33973 ft 491 kts 181°
2026-04-26 05:01 32.87206 112.53618 33981 ft 486 kts 199°
2026-04-26 05:01 32.80799 112.51226 33973 ft 486 kts 199°
2026-04-26 05:02 32.74287 112.49037 33984 ft 486 kts 197°
2026-04-26 05:02 32.67746 112.46966 33979 ft 487 kts 197°
2026-04-26 05:03 32.61208 112.44879 33984 ft 487 kts 197°
2026-04-26 05:03 32.54658 112.42761 33990 ft 488 kts 198°
2026-04-26 05:04 32.48088 112.40632 33978 ft 490 kts 198°
2026-04-26 05:04 32.41514 112.38507 33982 ft 490 kts 198°
2026-04-26 05:05 32.36041 112.36742 33971 ft 490 kts 198°
2026-04-26 05:05 32.29462 112.34622 33980 ft 489 kts 198°
2026-04-26 05:06 32.21838 112.32170 33973 ft 487 kts 198°
2026-04-26 05:06 32.16404 112.30425 33977 ft 485 kts 198°
2026-04-26 05:07 32.09902 112.28339 33973 ft 483 kts 198°
2026-04-26 05:07 32.02265 112.26371 33986 ft 483 kts 193°
2026-04-26 05:08 31.96753 112.25303 33977 ft 483 kts 192°
2026-04-26 05:08 31.90119 112.24024 33986 ft 482 kts 193°
2026-04-26 05:09 31.83500 112.22701 33973 ft 482 kts 193°
2026-04-26 05:09 31.76891 112.21357 33983 ft 481 kts 193°
2026-04-26 05:10 31.70282 112.20014 33976 ft 481 kts 193°
2026-04-26 05:10 31.63729 112.18687 33985 ft 481 kts 193°
2026-04-26 05:11 31.57119 112.17351 33977 ft 481 kts 194°
2026-04-26 05:11 31.50515 112.16019 33988 ft 481 kts 194°
2026-04-26 05:12 31.43912 112.14687 33982 ft 481 kts 194°
2026-04-26 05:12 31.37366 112.13318 33982 ft 480 kts 195°
2026-04-26 05:13 31.30833 112.11707 33979 ft 479 kts 197°
2026-04-26 05:13 31.24308 112.10060 33982 ft 479 kts 197°
2026-04-26 05:14 31.17776 112.08445 33985 ft 479 kts 197°
2026-04-26 05:14 31.11250 112.06852 33988 ft 479 kts 197°
2026-04-26 05:15 31.04713 112.05265 33980 ft 479 kts 197°
2026-04-26 05:15 30.98215 112.03688 33986 ft 479 kts 197°
2026-04-26 05:16 30.91692 112.02105 33983 ft 479 kts 197°
2026-04-26 05:16 30.85168 112.00524 33989 ft 479 kts 197°
2026-04-26 05:17 30.78642 111.98944 33979 ft 478 kts 197°
2026-04-26 05:17 30.72129 111.97370 33983 ft 478 kts 197°
2026-04-26 05:18 30.65628 111.95801 33979 ft 477 kts 197°
2026-04-26 05:18 30.59173 111.94248 33983 ft 476 kts 197°
2026-04-26 05:19 30.52684 111.92687 33974 ft 475 kts 198°
2026-04-26 05:19 30.46213 111.91133 33979 ft 475 kts 198°
2026-04-26 05:20 30.39740 111.89579 33977 ft 474 kts 198°
2026-04-26 05:20 30.33284 111.88032 33985 ft 473 kts 198°
2026-04-26 05:21 30.26830 111.86487 33980 ft 473 kts 198°
2026-04-26 05:21 30.20431 111.84958 33981 ft 472 kts 198°
2026-04-26 05:22 30.13996 111.83422 33979 ft 471 kts 198°
2026-04-26 05:22 30.07576 111.81892 33981 ft 470 kts 198°
2026-04-26 05:23 30.01171 111.80368 33982 ft 469 kts 198°
2026-04-26 05:23 29.94776 111.78847 33990 ft 469 kts 198°
2026-04-26 05:24 29.88398 111.77333 33986 ft 468 kts 198°
2026-04-26 05:24 29.82026 111.75822 33995 ft 466 kts 198°
2026-04-26 05:25 29.75677 111.74319 33989 ft 465 kts 198°
2026-04-26 05:25 29.69380 111.72830 33994 ft 464 kts 198°
2026-04-26 05:26 29.63075 111.71340 33989 ft 462 kts 198°
2026-04-26 05:26 29.56862 111.69875 33999 ft 461 kts 198°
2026-04-26 05:27 29.50543 111.68385 33993 ft 460 kts 198°
2026-04-26 05:27 29.44312 111.66919 33997 ft 459 kts 198°
2026-04-26 05:28 29.38043 111.65445 33994 ft 458 kts 198°
2026-04-26 05:28 29.31689 111.64478 34015 ft 464 kts 189°
2026-04-26 05:29 29.25222 111.64195 34000 ft 465 kts 188°
2026-04-26 05:29 29.18800 111.63934 33998 ft 464 kts 188°
2026-04-26 05:30 29.12362 111.63621 33804 ft 460 kts 187°
2026-04-26 05:30 29.05999 111.63293 33942 ft 456 kts 188°
2026-04-26 05:31 28.99669 111.62964 33988 ft 455 kts 188°
2026-04-26 05:31 28.93339 111.62638 34009 ft 455 kts 187°
2026-04-26 05:32 28.86986 111.62312 34011 ft 457 kts 187°
2026-04-26 05:32 28.80644 111.61862 34003 ft 456 kts 190°
2026-04-26 05:33 28.74334 111.61111 34009 ft 456 kts 191°
2026-04-26 05:33 28.68054 111.60361 33999 ft 457 kts 191°
2026-04-26 05:34 28.61724 111.59652 34004 ft 456 kts 190°
2026-04-26 05:34 28.55392 111.58959 34001 ft 456 kts 190°
2026-04-26 05:35 28.49069 111.58266 34012 ft 456 kts 190°
2026-04-26 05:35 28.42798 111.57578 34015 ft 456 kts 190°
2026-04-26 05:36 28.36482 111.56904 34017 ft 456 kts 190°
2026-04-26 05:36 28.30122 111.56236 34018 ft 455 kts 190°
2026-04-26 05:37 28.23859 111.55577 34024 ft 455 kts 190°
2026-04-26 05:37 28.17554 111.54912 34031 ft 454 kts 190°
2026-04-26 05:38 28.11267 111.54249 34024 ft 453 kts 190°
2026-04-26 05:38 28.05007 111.53590 34024 ft 451 kts 190°
2026-04-26 05:39 27.98759 111.52933 34030 ft 450 kts 190°
2026-04-26 05:39 27.92535 111.52280 34033 ft 449 kts 190°
2026-04-26 05:40 27.86359 111.51632 34043 ft 449 kts 190°
2026-04-26 05:40 27.80132 111.50979 34036 ft 450 kts 190°
2026-04-26 05:41 27.73899 111.50326 34028 ft 450 kts 190°
2026-04-26 05:41 27.67651 111.49673 34034 ft 450 kts 190°
2026-04-26 05:42 27.61414 111.49022 34040 ft 451 kts 190°
2026-04-26 05:42 27.55165 111.48370 34039 ft 451 kts 189°
2026-04-26 05:43 27.48908 111.47718 34043 ft 451 kts 189°
2026-04-26 05:43 27.42689 111.47070 34044 ft 451 kts 189°
2026-04-26 05:44 27.36424 111.46419 34039 ft 451 kts 189°
2026-04-26 05:44 27.30163 111.45769 34045 ft 451 kts 189°
2026-04-26 05:45 27.23904 111.45120 34043 ft 451 kts 189°
2026-04-26 05:45 27.17698 111.44477 34040 ft 451 kts 189°
2026-04-26 05:46 27.11444 111.43830 34045 ft 450 kts 189°
2026-04-26 05:46 27.05211 111.43185 34042 ft 449 kts 189°
2026-04-26 05:47 26.98997 111.42543 34045 ft 448 kts 190°
2026-04-26 05:47 26.92869 111.41517 34044 ft 441 kts 201°
2026-04-26 05:48 26.87377 111.38700 34045 ft 431 kts 217°
2026-04-26 05:48 26.82388 111.34986 34043 ft 431 kts 218°
2026-04-26 05:49 26.74907 111.29429 34049 ft 432 kts 218°
2026-04-26 05:50 26.69866 111.25741 34053 ft 433 kts 217°
2026-04-26 05:50 26.64813 111.22052 34055 ft 434 kts 217°
2026-04-26 05:51 26.59739 111.18350 34044 ft 435 kts 217°
2026-04-26 05:51 26.54640 111.14736 34057 ft 436 kts 216°
2026-04-26 05:52 26.50321 111.11813 34044 ft 437 kts 215°
2026-04-26 05:52 26.45125 111.08307 34046 ft 436 kts 216°
2026-04-26 05:53 26.39095 111.04215 34058 ft 436 kts 215°
2026-04-26 05:53 26.34765 111.01271 34069 ft 435 kts 215°
2026-04-26 05:54 26.29599 110.97760 34056 ft 434 kts 215°
2026-04-26 05:54 26.24457 110.94269 34060 ft 431 kts 215°
2026-04-26 05:55 26.19370 110.90819 34038 ft 429 kts 216°
2026-04-26 05:55 26.14283 110.87374 34074 ft 428 kts 215°
2026-04-26 05:56 26.09177 110.83917 34076 ft 430 kts 216°
2026-04-26 05:56 26.04060 110.80455 34074 ft 430 kts 216°
2026-04-26 05:57 25.98978 110.77001 34060 ft 430 kts 216°
2026-04-26 05:57 25.93870 110.73527 34059 ft 431 kts 216°
2026-04-26 05:58 25.88766 110.70062 34077 ft 431 kts 216°
2026-04-26 05:58 25.83630 110.66578 34079 ft 433 kts 216°
2026-04-26 05:59 25.78505 110.63106 34083 ft 434 kts 216°
2026-04-26 05:59 25.73344 110.59602 34073 ft 435 kts 217°
2026-04-26 06:00 25.68204 110.56032 34085 ft 435 kts 217°
2026-04-26 06:00 25.63065 110.52455 34087 ft 436 kts 217°
2026-04-26 06:01 25.57912 110.48886 34082 ft 437 kts 217°
2026-04-26 06:01 25.52805 110.45253 34076 ft 435 kts 219°
2026-04-26 06:02 25.47786 110.41507 34085 ft 434 kts 219°
2026-04-26 06:02 25.42786 110.37814 34067 ft 435 kts 219°
2026-04-26 06:03 25.37762 110.34079 34073 ft 434 kts 219°
2026-04-26 06:03 25.32773 110.30349 34082 ft 433 kts 219°
2026-04-26 06:04 25.27776 110.26620 34080 ft 433 kts 219°
2026-04-26 06:04 25.22781 110.22899 34090 ft 433 kts 219°
2026-04-26 06:05 25.17825 110.19210 34100 ft 432 kts 219°
2026-04-26 06:05 25.12836 110.15483 34100 ft 432 kts 219°
2026-04-26 06:06 25.07847 110.11758 34090 ft 432 kts 219°
2026-04-26 06:06 25.02861 110.08040 34086 ft 432 kts 219°
2026-04-26 06:07 24.97873 110.04325 34095 ft 433 kts 219°
2026-04-26 06:07 24.92899 110.00624 34079 ft 433 kts 219°
2026-04-26 06:08 24.87906 109.96912 34065 ft 433 kts 218°
2026-04-26 06:08 24.82923 109.93213 34069 ft 432 kts 218°
2026-04-26 06:09 24.77937 109.89513 34073 ft 431 kts 218°
2026-04-26 06:09 24.72966 109.85828 34067 ft 430 kts 218°
2026-04-26 06:10 24.68004 109.82154 34068 ft 429 kts 218°
2026-04-26 06:10 24.63053 109.78484 34067 ft 428 kts 219°
2026-04-26 06:11 24.58099 109.74809 34066 ft 428 kts 218°
2026-04-26 06:11 24.53162 109.71148 34057 ft 428 kts 218°
2026-04-26 06:12 24.48215 109.67485 34058 ft 429 kts 218°
2026-04-26 06:12 24.43300 109.63849 34062 ft 429 kts 218°
2026-04-26 06:13 24.38351 109.60193 34058 ft 429 kts 218°
2026-04-26 06:13 24.33388 109.56535 34060 ft 429 kts 218°
2026-04-26 06:14 24.28426 109.52883 34071 ft 429 kts 218°
2026-04-26 06:14 24.23461 109.49228 34059 ft 430 kts 218°
2026-04-26 06:15 24.18513 109.45593 34057 ft 430 kts 218°
2026-04-26 06:15 24.13535 109.41939 34060 ft 431 kts 218°
2026-04-26 06:16 24.08543 109.38276 34060 ft 432 kts 218°
2026-04-26 06:16 24.03551 109.34617 34061 ft 432 kts 218°
2026-04-26 06:17 23.98558 109.30961 34059 ft 432 kts 218°
2026-04-26 06:17 23.93554 109.27299 34054 ft 433 kts 218°
2026-04-26 06:18 23.88553 109.23644 34054 ft 432 kts 218°
2026-04-26 06:18 23.83557 109.19995 34059 ft 432 kts 218°
2026-04-26 06:19 23.78448 109.16526 34051 ft 438 kts 208°
2026-04-26 06:19 23.75550 109.15536 34066 ft 445 kts 197°
2026-04-26 06:19 23.72444 109.15152 34056 ft 454 kts 185°
2026-04-26 06:20 23.66100 109.15865 34058 ft 460 kts 178°
2026-04-26 06:20 23.59738 109.16819 34058 ft 460 kts 178°
2026-04-26 06:21 23.53382 109.17724 34052 ft 460 kts 179°
2026-04-26 06:21 23.47017 109.18577 34054 ft 460 kts 179°
2026-04-26 06:22 23.40675 109.19410 34056 ft 461 kts 179°
2026-04-26 06:22 23.34292 109.20247 34053 ft 462 kts 179°
2026-04-26 06:23 23.27936 109.21083 34051 ft 462 kts 179°
2026-04-26 06:23 23.21534 109.21924 34049 ft 463 kts 179°
2026-04-26 06:24 23.15139 109.22764 34046 ft 462 kts 179°
2026-04-26 06:24 23.08750 109.23602 34047 ft 462 kts 179°
2026-04-26 06:25 23.02362 109.24440 34050 ft 462 kts 179°
2026-04-26 06:25 22.95964 109.25277 34043 ft 463 kts 179°
2026-04-26 06:26 22.89603 109.26109 34050 ft 463 kts 179°
2026-04-26 06:26 22.83196 109.26947 34048 ft 462 kts 179°
2026-04-26 06:27 22.76807 109.27781 34037 ft 461 kts 179°
2026-04-26 06:27 22.70487 109.28606 34040 ft 459 kts 179°
2026-04-26 06:28 22.64152 109.29442 34048 ft 458 kts 179°
2026-04-26 06:28 22.57829 109.30280 34046 ft 457 kts 179°
2026-04-26 06:29 22.51498 109.31116 34048 ft 458 kts 179°
2026-04-26 06:29 22.45168 109.31951 34041 ft 458 kts 179°
2026-04-26 06:30 22.38840 109.32785 34045 ft 458 kts 179°
2026-04-26 06:30 22.32508 109.33619 34043 ft 458 kts 179°
2026-04-26 06:31 22.26208 109.34447 34038 ft 458 kts 178°
2026-04-26 06:31 22.19864 109.35273 34039 ft 459 kts 178°
2026-04-26 06:32 22.13515 109.36097 34038 ft 460 kts 178°
2026-04-26 06:32 22.07146 109.36923 34035 ft 461 kts 178°
2026-04-26 06:33 22.00765 109.37752 34031 ft 462 kts 178°
2026-04-26 06:33 21.94365 109.38583 34042 ft 463 kts 178°
2026-04-26 06:34 21.87953 109.39415 34041 ft 465 kts 178°
2026-04-26 06:34 21.81563 109.40243 34036 ft 466 kts 178°
2026-04-26 06:35 21.75104 109.41079 34033 ft 468 kts 178°
2026-04-26 06:35 21.68637 109.41916 34039 ft 469 kts 178°
2026-04-26 06:36 21.62152 109.42764 34034 ft 471 kts 176°
2026-04-26 06:36 21.55822 109.44852 34030 ft 483 kts 157°
2026-04-26 06:37 21.50018 109.48443 34028 ft 477 kts 152°
2026-04-26 06:37 21.44349 109.52074 34029 ft 474 kts 153°
2026-04-26 06:37 21.41494 109.53856 33919 ft 475 kts 153°
2026-04-26 06:38 21.38639 109.55620 33154 ft 479 kts 154°
2026-04-26 06:38 21.35756 109.57396 32421 ft 478 kts 154°
2026-04-26 06:38 21.32807 109.59013 31608 ft 474 kts 161°
2026-04-26 06:38 21.29714 109.60150 31073 ft 463 kts 169°
2026-04-26 06:39 21.26595 109.60819 30290 ft 458 kts 175°
2026-04-26 06:39 21.23437 109.61276 29568 ft 454 kts 177°
2026-04-26 06:39 21.20321 109.61679 28864 ft 448 kts 177°
2026-04-26 06:39 21.17246 109.62072 28195 ft 442 kts 176°
2026-04-26 06:40 21.14211 109.62473 27547 ft 437 kts 176°
2026-04-26 06:40 21.12220 109.62745 27114 ft 433 kts 176°
2026-04-26 06:40 21.09249 109.63161 26482 ft 428 kts 176°
2026-04-26 06:40 21.06304 109.63581 25855 ft 424 kts 175°
2026-04-26 06:41 21.03397 109.64000 25229 ft 420 kts 175°
2026-04-26 06:41 21.00519 109.64417 24586 ft 416 kts 175°
2026-04-26 06:41 20.97652 109.64832 23956 ft 413 kts 175°
2026-04-26 06:41 20.94815 109.65242 23286 ft 410 kts 175°
2026-04-26 06:42 20.91995 109.65650 22578 ft 406 kts 175°
2026-04-26 06:42 20.89215 109.66052 21928 ft 401 kts 174°
2026-04-26 06:42 20.86459 109.66450 21291 ft 397 kts 174°
2026-04-26 06:42 20.83741 109.66843 20680 ft 392 kts 174°
2026-04-26 06:43 20.81048 109.67231 20073 ft 388 kts 174°
2026-04-26 06:43 20.78388 109.67615 19475 ft 384 kts 174°
2026-04-26 06:43 20.75750 109.67995 18863 ft 381 kts 174°
2026-04-26 06:43 20.73133 109.68371 18252 ft 379 kts 174°
2026-04-26 06:44 20.70564 109.68741 17586 ft 376 kts 174°
2026-04-26 06:44 20.67984 109.69113 16955 ft 371 kts 174°
2026-04-26 06:44 20.65438 109.69480 16339 ft 367 kts 173°
2026-04-26 06:44 20.62919 109.69842 15753 ft 363 kts 173°
2026-04-26 06:45 20.60423 109.70201 15171 ft 359 kts 173°
2026-04-26 06:45 20.57960 109.70556 14591 ft 356 kts 173°
2026-04-26 06:45 20.55513 109.70907 14008 ft 353 kts 173°
2026-04-26 06:45 20.53090 109.71256 13377 ft 350 kts 173°
2026-04-26 06:46 20.50722 109.71722 13120 ft 338 kts 162°
2026-04-26 06:46 20.48675 109.72858 12819 ft 330 kts 144°
2026-04-26 06:46 20.46913 109.74400 12567 ft 326 kts 140°
2026-04-26 06:46 20.45216 109.75991 12092 ft 323 kts 140°
2026-04-26 06:47 20.43588 109.77536 11954 ft 309 kts 140°
2026-04-26 06:47 20.42011 109.79025 11811 ft 297 kts 140°
2026-04-26 06:47 20.40489 109.80451 11607 ft 287 kts 140°
2026-04-26 06:47 20.38985 109.81848 11268 ft 285 kts 141°
2026-04-26 06:48 20.37492 109.83229 10905 ft 283 kts 141°
2026-04-26 06:48 20.36008 109.84600 10529 ft 282 kts 141°
2026-04-26 06:48 20.34527 109.85965 10153 ft 282 kts 141°
2026-04-26 06:48 20.33042 109.87334 9748 ft 282 kts 141°
2026-04-26 06:49 20.31559 109.88700 9326 ft 281 kts 141°
2026-04-26 06:49 20.30081 109.90060 8929 ft 280 kts 141°
2026-04-26 06:49 20.28627 109.91397 8542 ft 278 kts 141°
2026-04-26 06:49 20.27164 109.92744 8162 ft 277 kts 141°
2026-04-26 06:50 20.25703 109.94091 7801 ft 277 kts 141°
2026-04-26 06:50 20.24241 109.95435 7404 ft 277 kts 141°
2026-04-26 06:50 20.22786 109.96775 7029 ft 276 kts 141°
2026-04-26 06:50 20.21340 109.98107 6656 ft 274 kts 141°
2026-04-26 06:51 20.19896 109.99437 6273 ft 272 kts 141°
2026-04-26 06:51 20.17045 110.02058 5493 ft 269 kts 140°
2026-04-26 06:51 20.15651 110.03340 5127 ft 267 kts 140°
2026-04-26 06:52 20.14253 110.04624 4757 ft 265 kts 140°
2026-04-26 06:52 20.12863 110.05901 4379 ft 263 kts 140°
2026-04-26 06:52 20.11484 110.07167 3994 ft 261 kts 139°
2026-04-26 06:52 20.10117 110.08423 3632 ft 258 kts 139°
2026-04-26 06:53 20.08764 110.09666 3378 ft 253 kts 139°
2026-04-26 06:53 20.07459 110.10863 3232 ft 243 kts 139°
2026-04-26 06:53 20.06211 110.12008 3126 ft 232 kts 139°
2026-04-26 06:53 20.05008 110.13104 3017 ft 223 kts 141°
2026-04-26 06:54 20.03623 110.13757 2883 ft 217 kts 169°
2026-04-26 06:54 20.02155 110.13852 2759 ft 213 kts 178°
2026-04-26 06:54 20.00677 110.13842 2653 ft 211 kts 180°
2026-04-26 06:54 19.99212 110.13834 2454 ft 208 kts 178°
2026-04-26 06:55 19.97785 110.13831 2345 ft 201 kts 177°
2026-04-26 06:55 19.96398 110.13834 2197 ft 199 kts 176°
2026-04-26 06:55 19.95040 110.13976 2021 ft 197 kts 153°
2026-04-26 06:55 19.94151 110.14962 1995 ft 184 kts 107°
2026-04-26 06:56 19.93924 110.16291 1992 ft 182 kts 99°
2026-04-26 06:56 19.93739 110.17604 2003 ft 179 kts 99°
2026-04-26 06:56 19.93552 110.18929 1962 ft 183 kts 96°
2026-04-26 06:56 19.93462 110.20242 1995 ft 178 kts 91°
2026-04-26 06:57 19.93430 110.21582 1979 ft 184 kts 91°
2026-04-26 06:57 19.93427 110.22916 1976 ft 183 kts 90°
2026-04-26 06:57 19.93428 110.24252 1993 ft 180 kts 89°
2026-04-26 06:57 19.93425 110.25573 2002 ft 178 kts 89°
2026-04-26 06:58 19.93429 110.26906 1974 ft 182 kts 89°
2026-04-26 06:58 19.93430 110.28242 1992 ft 180 kts 88°
2026-04-26 06:58 19.93438 110.29571 1976 ft 178 kts 89°
2026-04-26 06:58 19.93442 110.30878 1986 ft 174 kts 89°
2026-04-26 06:59 19.93444 110.32128 1976 ft 163 kts 89°
2026-04-26 06:59 19.93445 110.33304 1986 ft 158 kts 89°
2026-04-26 06:59 19.93448 110.34497 1827 ft 163 kts 89°
2026-04-26 06:59 19.93446 110.35667 1605 ft 152 kts 89°
2026-04-26 07:00 19.93452 110.36728 1495 ft 135 kts 89°
2026-04-26 07:00 19.93456 110.37699 1277 ft 127 kts 90°
2026-04-26 07:00 19.93458 110.38652 1111 ft 129 kts 89°
2026-04-26 07:00 19.93452 110.39601 947 ft 127 kts 86°
2026-04-26 07:01 19.93464 110.40574 757 ft 136 kts 88°
2026-04-26 07:01 19.93460 110.41527 587 ft 127 kts 86°
2026-04-26 07:01 19.93467 110.42451 406 ft 124 kts 89°
2026-04-26 07:01 19.93470 110.43375 279 ft 123 kts 87°
2026-04-26 07:02 19.93476 110.44270 101 ft 122 kts 87°
2026-04-26 07:02 19.93477 110.45090 80 ft 92 kts 90°
2026-04-26 07:02 19.93478 110.45612 82 ft 49 kts 90°
2026-04-26 07:02 19.93480 110.45921 80 ft 34 kts 90°
2026-04-26 07:03 19.93498 110.46047 81 ft 16 kts 54°
2026-04-26 07:03 19.93549 110.46139 75 ft 10 kts 62°
2026-04-26 07:03 19.93581 110.46203 74 ft 10 kts 64°
2026-04-26 07:03 19.93609 110.46266 74 ft 9 kts 64°
2026-04-26 07:04 19.93634 110.46321 69 ft 8 kts 64°
2026-04-26 07:04 19.93660 110.46372 74 ft 8 kts 51°
2026-04-26 07:04 19.93711 110.46381 71 ft 8 kts
2026-04-26 07:04 19.93736 110.46424 67 ft 7 kts 86°
2026-04-26 07:05 19.93737 110.46477 76 ft 7 kts 89°
2026-04-26 07:05 19.93737 110.46528 74 ft 7 kts 90°
2026-04-26 07:05 19.93737 110.46579 76 ft 7 kts 90°
2026-04-26 07:05 19.93738 110.46628 76 ft 7 kts 87°
2026-04-26 07:06 19.93764 110.46664 73 ft 6 kts 22°
2026-04-26 07:06 19.93809 110.46668 71 ft 6 kts
2026-04-26 07:06 19.93853 110.46668 69 ft 6 kts
2026-04-26 07:06 19.93896 110.46668 69 ft 6 kts
2026-04-26 07:07 19.93937 110.46668 70 ft 6 kts 359°
2026-04-26 07:07 19.93978 110.46665 70 ft 6 kts 339°
2026-04-26 07:07 19.93991 110.46628 74 ft 4 kts 270°
2026-04-26 07:07 19.93990 110.46615 74 ft 1 kts 270°
2026-04-26 07:08 19.93990 110.46611 67 ft 1 kts 270°
2026-04-26 07:08 19.93990 110.46610 67 ft 0 kts 270°